sat.trackr.live / text

‹ back to catalog

HAWK-A

NORAD 43765 · 2018-099H

PAYLOAD ACTIVE UNKNOWN

§ Identity

Operator
Country
US
Launch date
2018-12-03
Launch site
AFWTR
Launch vehicle
Mass (kg)
RCS (m²)

Purposes: tech_demo

External: N2YO · Heavens-Above · Gunter

§ Orbital elements

Epoch: 2026-09-20T02:03:23.338656Z

Period
94.38 min
Inclination
97.3815°
Eccentricity
0.0032571
Mean motion
15.25699978 rev/d
Perigee alt
466.3 km
Apogee alt
511.1 km
Semi-major
6,866.8 km
B*
1.6355e-4
RAAN
314.1004°
Arg perigee
312.7755°
Mean anomaly
47.0744°
Rev number
42,756

§ Raw data

HAWK-A1 43765U 18099H   26263.08568679  .00004155  00000+0  16355-3 0  99972 43765  97.3815 314.1004 0032571 312.7755  47.0744 15.25699978427562

JSON: /api/v1/satellites/43765 · /tle

For live sub-satellite position, see the globe view (requires WebGL).

§ Visibility from observer

Set your observer location to see the next 7 days of passes ≥ 10°. The values pass through the URL so the page stays shareable.

No JS? Fill the form by hand. The geolocation button needs JavaScript.